Regional Weather Roundup
Issued by NWS Charleston, SC

Current Version | Previous Version | Graphics & Text | Print | Product List | Glossary On
Versions: 1 2 3 4 5 6 7 8 9 10 11 12 13 14 15 16 17 18 19 20 21 22 23 24 25 26 27 28 29 30 31 32 33 34 35 36 37 38 39 40 41 42 43 44 45 46 47 48 49 50
000
ASUS42 KCHS 211212
RWRCHS

Regional Weather Roundup
National Weather Service Charleston SC
800 AM EDT MON MAY 21 2018

NOTE: "fair" indicates few or no clouds below 12,000 feet with no
significant weather and/or obstructions to visibility.

Not all stations are quality controlled. Use data with caution,
especially dewpoint observations.

SCZ027-030-031-034>040-042>050-211300-
...Southeast South Carolina...

CITY           SKY/WX    TMP DP  RH WIND       PRES   REMARKS
N Charleston   PTSUNNY   73  71  93 N3        30.18R
6HR MIN TEMP:  70; 6HR MAX TEMP:  73;

Waterfront Prk   N/A     75  73  93 N6        30.01R
Mount Pleasant NOT AVBL
Johns Island   NOT AVBL
Pinopolis        N/A     72  72 100 CALM      30.09R
Moncks Corner  NOT AVBL
Summerville    NOT AVBL
Beaufort MCAS  PTSUNNY   73  72  96 NE5       30.17R
6HR MIN TEMP:  68; 6HR MAX TEMP:  73;

Beaufort Arpt  NOT AVBL
Hilton Head Is CLOUDY    75  73  94 CALM      30.17R
Walterboro     NOT AVBL
Allendale      NOT AVBL

...Southern Midlands and Pee Dee...

CITY           SKY/WX    TMP DP  RH WIND       PRES   REMARKS
Georgetown     NOT AVBL
Kingstree      NOT AVBL
Orangeburg     FAIR      70  68  93 CALM      30.18S
6HR MIN TEMP:  68; 6HR MAX TEMP:  71;

Barnwell       NOT AVBL
Aiken          NOT AVBL
Manning        NOT AVBL
Columbia       PTSUNNY   73  70  90 S6        30.16R
6HR MIN TEMP:  70; 6HR MAX TEMP:  74;

Sumter         CLOUDY    71  69  94 S5        30.15R
6HR MIN TEMP:  70; 6HR MAX TEMP:  72;

Florence       CLOUDY    73  71  93 SW7       30.16S
6HR MIN TEMP:  71; 6HR MAX TEMP:  73;

Myrtle Beach   FAIR      72  70  93 SW5       30.18R
N Myrtle Beach FAIR      73  70  90 W5        30.16R
6HR MIN TEMP:  70; 6HR MAX TEMP:  73;


$$

GAZ063-065-086>088-099>101-113>116-118-119-134>141-150-211300-
...Southeast Georgia...

CITY           SKY/WX    TMP DP  RH WIND       PRES   REMARKS
Savannah Arpt  PTSUNNY   73  72  96 NE6       30.16R
6HR MIN TEMP:  69; 6HR MAX TEMP:  73;

Hunter AAF     FAIR      73  72  95 NE3       30.13R
6HR MIN TEMP:  69; 6HR MAX TEMP:  73;

Fort Stewart   PTSUNNY   72  72 100 NE7       30.16
Statesboro     CLOUDY    69  69 100 CALM      30.17R FOG
Sylvania       FOG       70  70 100 CALM      30.18R VSB 1/2
Claxton        FOG       71  71  99 NE5       30.16R VSB 1/2

...CSRA, Central and far Southeast Georgia...

CITY           SKY/WX    TMP DP  RH WIND       PRES   REMARKS
Thomson        FAIR      67  66  98 CALM      30.23S
Augusta-Bush   FAIR      69  67  93 CALM      30.17R
6HR MIN TEMP:  63; 6HR MAX TEMP:  69;

Augusta-Daniel FAIR      72  65  78 NE3       30.18S
Swainsboro     CLOUDY    70  66  88 E5        30.17S
Vidalia        FOG       70  64  83 NE6       30.15S VSB 1/2
Eastman        CLOUDY    70  62  75 E5        30.17R
Hazlehurst     NOT AVBL
Alma           PTSUNNY   73  70  90 VRB3      30.12R
6HR MIN TEMP:  71; 6HR MAX TEMP:  73; 6HR PCP: TRACE;

Waycross       FAIR      73  70  91 E6        30.12R
Jesup          FAIR      73  70  88 CALM      30.13R
Baxley         CLOUDY    70  70 100 NE7       30.13R
Brunswick      FAIR      73  70  88 E3        30.13R
Saint Simons   FAIR      76  74  93 E6        30.12R
6HR MIN TEMP:  75; 6HR MAX TEMP:  76;


$$

SCZ027-028-034-036>038-045-046-048>050-GAZ119-141-211300-
...Lake and Supplemental Coastal Observations...

STATION/POSITION TIME  TEMP    WIND        PRES    WAVE   SWELL
                       AIR SEA DIR/SP/G            HT/PER HT/PER/DIR
                 (UTC) (F)     (DEG/KT/KT) (MB)    (FT/S) (FT/S/D)
Winyah Bay       NOT AVBL
Lake Murray      1120   73     170/  4/  5 1020.3R
ACE Basin NERRS  1045   71        CALM     1021.0
Fort Pulaski     1142   76 78  120/  4/  6 1021.1R
Sapelo Island    1100   74     130/  4     1019.0

$$

ANZ835-935-AMZ111-154-330-350-352-354-370-450-454-472-211300-
...C-MAN and Buoy Observations...

STATION/POSITION TIME  TEMP    WIND        PRES    WAVE   SWELL
                       AIR SEA DIR/SP/G            HT/PER HT/PER/DIR
                 (UTC) (F)     (DEG/KT/KT) (MB)    (FT/S) (FT/S/D)
Buoy 41004       1150      74   CALM  /  2 1021.6R   5/ 9   5/140/ 9
Buoy 41008       1150   75 75  100/  6/  8 1019.9R   3/ 9   3/120/ 9
Folly Beach CMAN 1100   74      70/  3/  4 1021.6R
Capers Nearshore 1108   75 76  120/  2/  4 1022.0R
Fripp Nearshore  1108   75 77   80/  6/  8 1020.6R


STATION/POSITION TIME  TEMP    WIND        PRES    WAVE   SWELL
                       AIR SEA DIR/SP/G            HT/PER HT/PER/DIR
                 (UTC) (F)     (DEG/KT/KT) (MB)    (FT/S) (FT/S/D)
5E St. Marys GA  1200      75                N/A     3/10
Frying Pan Buoy  1150   72 75  220/ 16/ 17 1022.0R   5/ 8   3/140/ 8
Buoy 41025       1150   74 74  250/ 16/ 17 1021.4R   4/ 9   3/150/ 9
Cape Lookout NC  1100          240/  8/ 10 1021.2R
Buoy 41002       1150      77  160/ 10/ 12 1022.6R   5/ 8   5/130/ 8
Buoy 41010       1150   77 79  110/ 16/ 19 1020.6R   7/ 9   5/110/ 9
St Augustine FL  1200   72 75  150/ 18/ 22 1020.0R


$$




USA.gov is the U.S. government's official web portal to all federal, state and local government web resources and services.